DW3371 Weather Reports


Display with metric or nautical units.
time (UTC)temp
F
wind
direction
speed
MPH
gust
MPH
rain 1hr
in
rain 24hr
in
rain mn
in
humidity
%
barometer
mb
20260901222710 65 250 2.0 7.0 0.00 0.00 0.00 71 1017.0
20260901212707 65 0 5.0 10.0 0.00 0.00 0.00 69 1017.1
20260901205712 66 257 4.0 10.0 0.00 0.00 0.00 68 1017.2
20260901202707 67 263 5.0 12.0 0.00 0.00 0.00 66 1017.2
20260901195710 68 259 4.0 9.0 0.00 0.00 0.00 64 1017.2
20260901192705 68 290 4.0 8.0 0.00 0.00 0.00 60 1016.8
20260901182704 69 276 5.0 10.0 0.00 0.00 0.00 54 1016.5
20260901165700 72 274 6.0 14.0 0.00 0.00 0.00 49 1016.4
20260901152655 73 279 9.0 16.0 0.00 0.00 0.00 46 1016.9
20260901145658 72 0 8.0 16.0 0.00 0.00 0.00 48 1016.8
20260901135659 73 243 9.0 18.0 0.00 0.00 0.00 47 1017.0
20260901132654 71 270 8.0 16.0 0.00 0.00 0.00 50 1017.1
20260901125653 71 236 9.0 15.0 0.00 0.00 0.00 51 1017.2
20260901122655 70 0 7.0 17.0 0.00 0.00 0.00 51 1017.2
20260901115704 69 274 8.0 14.0 0.00 0.00 0.00 53 1017.5
20260901112654 69 279 7.0 13.0 0.00 0.00 0.00 54 1017.5
20260901105654 67 224 7.0 14.0 0.00 0.00 0.00 57 1017.6
20260901102658 67 252 7.0 15.0 0.00 0.00 0.00 59 1017.8
20260901095653 66 236 5.0 12.0 0.00 0.00 0.00 64 1017.9
20260901085652 63 254 5.0 11.0 0.00 0.00 0.00 72 1018.2
20260901082652 61 292 5.0 10.0 0.00 0.00 0.00 77 1018.0
20260901075652 60 274 6.0 10.0 0.00 0.00 0.00 79 1017.9
20260901072657 58 264 4.0 9.0 0.00 0.00 0.00 82 1017.9
20260901065650 57 263 4.0 9.0 0.00 0.00 0.00 83 1017.7
20260901062650 56 0 3.0 7.0 0.00 0.00 0.00 85 1017.6
20260901052647 54 261 4.0 7.0 0.00 0.00 0.00 86 1017.3
20260901045650 54 248 4.0 7.0 0.00 0.00 0.00 85 1017.1
20260901042647 54 0 2.0 7.0 0.00 0.00 0.00 85 1016.9
20260901035644 55 259 4.0 8.0 0.00 0.00 0.00 84 1016.7
20260901032644 56 0 3.0 8.0 0.00 0.00 0.00 83 1016.7
20260901025644 56 0 3.0 7.0 0.00 0.00 0.00 82 1016.7
20260901022643 56 260 3.0 8.0 0.00 0.00 0.00 82 1016.8
20260901015643 56 249 3.0 7.0 0.00 0.00 0.00 81 1016.8
20260901012642 57 0 3.0 6.0 0.00 0.00 0.00 80 1016.8
20260901005644 58 257 3.0 8.0 0.00 0.00 0.00 79 1016.5
20260831232639 59 288 3.0 7.0 0.00 0.00 0.00 78 1016.1